CW9454 Weather Reports


Display with metric or nautical units.
time (UTC)temp
F
wind
direction
speed
MPH
gust
MPH
rain 1hr
in
rain 24hr
in
rain mn
in
humidity
%
barometer
mb
20260508050029 52 257 1.0 5.0 0.00 0.04 0.00 82 1011.5
20260508045023 52 253 2.0 4.0 0.00 0.04 0.00 82 1011.5
20260508044037 52 252 1.0 5.0 0.00 0.04 0.00 82 1011.4
20260508043022 52 226 1.0 5.0 0.00 0.04 0.00 82 1011.3
20260508042016 52 223 1.0 4.0 0.00 0.04 0.00 81 1011.2
20260508041048 52 221 1.0 4.0 0.00 0.04 0.00 81 1011.2
20260508040043 52 212 2.0 4.0 0.00 0.04 0.00 80 1011.1
20260508035036 52 204 0.0 1.0 0.00 0.04 0.04 79 1011.1
20260508034030 52 204 0.0 2.0 0.00 0.04 0.04 78 1011.1
20260508033044 53 199 0.0 0.0 0.00 0.04 0.04 77 1011.0
20260508032036 53 199 0.0 1.0 0.00 0.04 0.04 77 1011.1
20260508031020 53 199 0.0 0.0 0.00 0.04 0.04 76 1011.2
20260508030036 53 199 0.0 0.0 0.00 0.04 0.04 76 1011.1
20260508025021 53 199 0.0 2.0 0.00 0.04 0.04 75 1011.0
20260508024016 54 197 0.0 0.0 0.00 0.04 0.04 74 1011.1
20260508023030 54 197 0.0 1.0 0.00 0.04 0.04 74 1011.1
20260508022023 54 197 0.0 0.0 0.00 0.04 0.04 73 1011.2
20260508021018 54 197 0.0 1.0 0.00 0.04 0.04 72 1011.1
20260508020042 55 197 0.0 1.0 0.00 0.04 0.04 71 1011.1
20260508015016 55 197 0.0 2.0 0.00 0.04 0.04 71 1010.9
20260508014029 55 187 0.0 0.0 0.00 0.04 0.04 70 1010.9
20260508013023 55 187 0.0 2.0 0.00 0.04 0.04 69 1010.8
20260508012037 55 185 0.0 1.0 0.00 0.04 0.04 68 1010.7
20260508011032 56 185 0.0 1.0 0.00 0.04 0.04 67 1010.6
20260508010040 56 184 0.0 0.0 0.00 0.04 0.04 67 1010.3
20260508005034 56 184 0.0 0.0 0.00 0.04 0.04 65 1010.3
20260508004017 57 184 0.0 1.0 0.00 0.04 0.04 64 1010.1
20260508003032 57 184 0.0 0.0 0.00 0.04 0.04 63 1010.0
20260508002046 58 184 0.0 2.0 0.00 0.04 0.04 62 1010.0
20260508001039 58 184 0.0 1.0 0.00 0.04 0.04 61 1009.9
20260508000036 59 184 0.0 1.0 0.00 0.04 0.04 60 1009.7
20260507235030 59 184 0.0 1.0 0.00 0.04 0.04 59 1009.4
20260507234015 60 184 0.0 4.0 0.00 0.04 0.04 57 1009.4
20260507233028 60 159 0.0 2.0 0.00 0.04 0.04 57 1009.2
20260507232023 61 175 0.0 3.0 0.00 0.04 0.04 57 1009.1
20260507231036 62 150 0.0 0.0 0.00 0.04 0.04 56 1009.0
20260507230054 62 150 0.0 3.0 0.00 0.04 0.04 56 1009.0
20260507225019 62 167 0.0 2.0 0.00 0.04 0.04 56 1009.0
20260507224012 62 184 0.0 3.0 0.00 0.04 0.04 56 1008.8
20260507223019 62 140 0.0 2.0 0.00 0.04 0.04 56 1008.9
20260507222014 63 146 1.0 2.0 0.00 0.04 0.04 56 1008.7
20260507221027 63 115 1.0 3.0 0.00 0.04 0.04 55 1008.7
20260507220015 63 153 0.0 2.0 0.00 0.04 0.04 55 1008.7
20260507215027 63 150 0.0 3.0 0.00 0.04 0.04 57 1008.8
20260507214021 63 109 0.0 4.0 0.00 0.04 0.04 54 1008.8
20260507213035 63 111 0.0 2.0 0.00 0.04 0.04 55 1008.9
20260507212020 63 117 0.0 3.0 0.00 0.04 0.04 54 1008.9
20260507211014 63 120 0.0 6.0 0.00 0.04 0.04 54 1009.2
20260507210023 63 117 0.0 4.0 0.00 0.04 0.04 56 1009.1
20260507205017 63 150 0.0 2.0 0.00 0.04 0.04 55 1009.1
20260507204032 63 155 0.0 4.0 0.00 0.04 0.04 53 1009.1
20260507203027 63 123 1.0 4.0 0.00 0.04 0.04 53 1008.9
20260507202021 63 162 0.0 3.0 0.00 0.04 0.04 54 1008.8
20260507201035 64 122 0.0 5.0 0.00 0.04 0.04 56 1008.8
20260507200022 64 96 0.0 1.0 0.00 0.04 0.04 54 1008.8
20260507195036 64 95 0.0 2.0 0.00 0.04 0.04 53 1009.0
20260507194020 64 92 0.0 3.0 0.00 0.04 0.04 56 1009.2
20260507193014 63 123 0.0 1.0 0.00 0.04 0.04 56 1009.4
20260507192027 63 123 0.0 3.0 0.00 0.04 0.04 55 1009.3
20260507191041 62 167 0.0 3.0 0.00 0.04 0.04 52 1009.5
20260507190036 63 133 0.0 2.0 0.00 0.04 0.04 55 1009.7
20260507185020 62 142 0.0 2.0 0.00 0.04 0.04 55 1009.8
20260507184035 62 153 0.0 3.0 0.00 0.04 0.04 54 1010.0
20260507183027 62 137 0.0 0.0 0.00 0.04 0.04 59 1010.1
20260507182021 62 137 0.0 3.0 0.00 0.04 0.04 57 1010.1
20260507181014 61 105 0.0 1.0 0.00 0.04 0.04 58 1010.1
20260507180019 61 105 0.0 0.0 0.00 0.04 0.04 56 1010.6
20260507175012 61 103 0.0 0.0 0.00 0.04 0.04 58 1010.6
20260507174026 60 104 0.0 0.0 0.00 0.04 0.04 56 1010.8
20260507173020 59 103 0.0 1.0 0.00 0.04 0.04 56 1011.0
20260507172034 60 98 0.0 1.0 0.00 0.04 0.04 58 1010.8
20260507171019 58 333 0.0 0.0 0.00 0.04 0.04 64 1011.0
20260507170036 59 331 0.0 0.0 0.00 0.04 0.04 63 1011.4
20260507165021 59 331 0.0 0.0 0.00 0.04 0.04 60 1011.6
20260507164015 59 331 0.0 0.0 0.00 0.04 0.04 58 1011.9
20260507163029 59 331 0.0 0.0 0.00 0.04 0.04 58 1011.6
20260507162043 58 331 0.0 1.0 0.00 0.04 0.04 55 1012.0
20260507161015 58 331 0.0 0.0 0.00 0.04 0.04 56 1012.1
20260507160025 58 331 0.0 0.0 0.00 0.04 0.04 55 1012.2
20260507155018 58 331 0.0 2.0 0.00 0.07 0.04 56 1012.3
20260507154014 58 335 0.0 1.0 0.00 0.07 0.04 58 1012.2
20260507153030 57 336 0.0 1.0 0.00 0.07 0.04 57 1012.2
20260507152015 57 347 0.0 1.0 0.00 0.07 0.04 58 1012.3
20260507151100 56 346 0.0 1.0 0.00 0.07 0.04 57 1012.4
20260507150025 56 351 0.0 0.0 0.00 0.07 0.04 60 1012.5
20260507145038 56 351 0.0 0.0 0.00 0.17 0.04 60 1012.6
20260507144031 56 355 0.0 0.0 0.00 0.17 0.04 60 1012.8
20260507143017 56 9 0.0 0.0 0.00 0.17 0.04 61 1012.8
20260507142013 56 9 0.0 0.0 0.00 0.17 0.04 59 1012.8
20260507141046 56 9 0.0 4.0 0.00 0.17 0.04 56 1012.9
20260507140012 56 344 0.0 5.0 0.00 0.17 0.04 55 1013.1
20260507135022 56 11 0.0 5.0 0.00 0.17 0.04 56 1012.9
20260507134014 56 317 0.0 5.0 0.00 0.17 0.04 54 1013.1
20260507133028 55 324 0.0 4.0 0.00 0.17 0.04 53 1013.0
20260507132022 55 324 0.0 5.0 0.00 0.17 0.04 56 1013.1
20260507131016 55 322 0.0 1.0 0.00 0.17 0.04 55 1013.2
20260507130022 55 309 0.0 6.0 0.00 0.17 0.04 59 1013.2
20260507125037 55 325 1.0 5.0 0.00 0.17 0.04 58 1013.3
20260507124030 55 347 1.0 8.0 0.00 0.17 0.04 59 1013.0
20260507123024 55 321 0.0 8.0 0.00 0.17 0.04 58 1013.1
20260507122035 55 310 0.0 4.0 0.00 0.17 0.04 60 1013.0
20260507121028 55 309 0.0 8.0 0.00 0.17 0.04 60 1012.6
20260507120016 55 307 1.0 5.0 0.00 0.17 0.04 62 1012.5
20260507115029 55 327 0.0 6.0 0.00 0.17 0.04 62 1012.6
20260507114023 55 342 0.0 8.0 0.00 0.17 0.04 65 1012.7
20260507113036 55 332 0.0 2.0 0.00 0.17 0.04 69 1012.7
20260507112021 55 321 0.0 2.0 0.00 0.17 0.04 71 1012.7
20260507111034 54 327 0.0 2.0 0.00 0.17 0.04 72 1012.5
20260507110030 54 334 0.0 2.0 0.00 0.17 0.04 75 1012.4
20260507105015 54 337 0.0 1.0 0.00 0.17 0.04 78 1012.3
20260507104029 54 337 0.0 3.0 0.00 0.17 0.04 81 1012.4
20260507103022 54 322 0.0 0.0 0.00 0.17 0.04 83 1012.2
20260507102016 54 322 0.0 0.0 0.00 0.17 0.04 83 1012.0
20260507101046 55 322 0.0 0.0 0.00 0.17 0.04 84 1011.9
20260507100041 55 323 0.0 0.0 0.00 0.17 0.04 85 1012.0
20260507095035 55 323 0.0 0.0 0.00 0.17 0.04 85 1011.9
20260507094019 55 323 0.0 0.0 0.00 0.17 0.04 85 1011.9
20260507093102 55 323 0.0 0.0 0.00 0.17 0.04 85 1012.2
20260507092027 55 323 0.0 0.0 0.00 0.17 0.04 84 1012.2
20260507091021 55 318 0.0 0.0 0.00 0.17 0.04 84 1012.1
20260507090029 55 318 0.0 0.0 0.00 0.17 0.04 83 1011.7
20260507085022 55 318 0.0 1.0 0.00 0.17 0.04 83 1011.6
20260507084016 55 318 0.0 1.0 0.00 0.17 0.04 83 1011.7
20260507083051 55 316 0.0 1.0 0.00 0.17 0.04 83 1011.4
20260507082043 55 322 0.0 2.0 0.00 0.17 0.04 82 1011.2
20260507081017 56 313 0.0 2.0 0.00 0.17 0.04 83 1011.3
20260507080026 56 335 0.0 1.0 0.00 0.17 0.04 83 1011.1
20260507075019 56 36 0.0 8.0 0.00 0.17 0.04 83 1010.9
20260507074014 56 327 1.0 6.0 0.00 0.17 0.04 85 1010.8
20260507073029 57 316 1.0 10.0 0.01 0.17 0.04 85 1011.1
20260507072023 57 340 1.0 5.0 0.01 0.17 0.04 85 1010.7
20260507071039 56 323 1.0 6.0 0.01 0.17 0.04 86 1010.5
20260507070027 56 322 0.0 9.0 0.01 0.17 0.04 85 1010.7
20260507065013 56 327 1.0 8.0 0.01 0.17 0.04 86 1011.0
20260507064028 57 346 0.0 3.0 0.02 0.17 0.04 86 1010.5
20260507063022 57 320 0.0 1.0 0.02 0.16 0.03 86 1010.5
20260507062018 57 311 0.0 2.0 0.03 0.16 0.03 85 1010.8
20260507061027 57 318 1.0 5.0 0.03 0.16 0.03 85 1010.8
20260507060030 57 338 1.0 10.0 0.03 0.16 0.03 83 1011.0
20260507055023 58 339 0.0 8.0 0.03 0.16 0.03 82 1010.7
20260507054018 60 18 2.0 10.0 0.02 0.15 0.02 83 1011.0
20260507053032 62 321 0.0 4.0 0.01 0.14 0.01 81 1010.6
20260507052014 62 326 0.0 8.0 0.00 0.13 0.00 78 1010.6
20260507051024 63 315 0.0 8.0 0.00 0.13 0.00 76 1011.3